{"data":{"norad_id":63858,"epoch":"2026-09-20T03:47:18.506976Z","epoch_age_seconds":176616,"freshness":"STALE","line1":"1 63858U 25093Y   26263.15785309  .00011438  00000+0  42451-3 0  9991","line2":"2 63858  43.0041  59.6060 0001734 273.5050  86.5603 15.27580195 77552","mean_motion":15.27580195,"eccentricity":0.0001734,"inclination_deg":43.0041,"raan_deg":59.606,"arg_perigee_deg":273.505,"mean_anomaly_deg":86.5603,"bstar":0.00042451,"rev_number":7755,"period_min":94.26673668023,"perigee_km":481.85878257176,"apogee_km":484.23824170737,"semimajor_km":6861.1855121396,"source":"CELESTRAK","updated_at":"2026-09-21T09:00:35.135540Z"}}